This is the latest recevied weather packets stored in our database for station/object DL1MMS-10. If no packets are shown the sender has not sent any weather packets the latest 1 day(s).
| Time | Temp. | Humidity | Pressure | Rain* | Wind** | Luminosity | Snow |
|---|---|---|---|---|---|---|---|
| 1778053741 | 13.33° C | 76% | 1007.9 hPa | 0 mm | - | - | - |
| 1778053441 | 13.33° C | 77% | 1007.9 hPa | 0 mm | - | - | - |
| 1778052540 | 12.78° C | 77% | 1008.1 hPa | 0 mm | - | - | - |
| 1778052240 | 12.78° C | 78% | 1008.2 hPa | 0 mm | - | - | - |
| 1778051339 | 11.67° C | 78% | 1008.2 hPa | 0 mm | - | - | - |
| 1778050738 | 11.67° C | 79% | 1008.3 hPa | 0 mm | - | - | - |
| 1778050438 | 11.67° C | 80% | 1008.5 hPa | 0 mm | - | - | - |
| 1778050138 | 11.11° C | 80% | 1008.4 hPa | 0 mm | - | - | - |
| 1778049537 | 10.56° C | 81% | 1008.6 hPa | 0 mm | - | - | - |
| 1778049237 | 10.56° C | 81% | 1008.6 hPa | 0 mm | - | - | - |
| 1778048636 | 10° C | 82% | 1008.5 hPa | 0 mm | - | - | - |
| 1778048336 | 10° C | 82% | 1008.3 hPa | 0 mm | - | - | - |
| 1778048036 | 10° C | 83% | 1008.2 hPa | 0 mm | - | - | - |
| 1778047435 | 9.44° C | 85% | 1008.3 hPa | 0 mm | - | - | - |
| 1778047135 | 8.89° C | 85% | 1008.2 hPa | 0 mm | - | - | - |
| 1778046534 | 8.89° C | 86% | 1008.5 hPa | 0 mm | - | - | - |
| 1778046234 | 8.33° C | 86% | 1008.4 hPa | 0 mm | - | - | - |
| 1778045934 | 8.33° C | 86% | 1008.5 hPa | 0 mm | - | - | - |
| 1778045333 | 7.78° C | 86% | 1008.4 hPa | 0 mm | - | - | - |
| 1778045033 | 7.78° C | 86% | 1008.5 hPa | 0 mm | - | - | - |
| 1778044432 | 7.22° C | 87% | 1008.5 hPa | 0 mm | - | - | - |
| 1778044133 | 7.22° C | 87% | 1008.6 hPa | 0 mm | - | - | - |
| 1778043832 | 6.67° C | 87% | 1008.7 hPa | 0 mm | - | - | - |
| 1778043231 | 6.11° C | 87% | 1008.9 hPa | 0 mm | - | - | - |
| 1778042931 | 5.56° C | 87% | 1008.8 hPa | 0 mm | - | - | - |
* Rain latest hour (hover to see other rain measurements)
** Current wind speed in m/s (hover to see current wind gust speed)